{"data":{"norad_id":62451,"intl_designator":"2024-251V","name":"STARLINK-32720","alt_names":[],"object_type":"PAYLOAD","status":"ACTIVE","operator":null,"country":"US","launch_date":"2024-12-29","launch_site_code":"AFWTR","launch_vehicle":null,"mission":null,"orbit_class":"UNKNOWN","rcs_meters":null,"size_class":null,"mass_kg":null,"dimensions":null,"purposes":["comms"],"wikipedia_slug":null,"has_3d_model":false,"image_url":null,"decayed_at":null,"tle_current":{"epoch":"2026-09-21T20:29:05.293536Z","epoch_age_seconds":57870,"freshness":"FRESH","line1":"1 62451U 24251V   26264.85353349  .00016094  00000+0  48635-3 0  9990","line2":"2 62451  53.1588 141.1893 0001685  87.6547 272.4649 15.34406093 97650","mean_motion":15.34406093,"eccentricity":0.0001685,"inclination_deg":53.1588,"raan_deg":141.1893,"arg_perigee_deg":87.6547,"mean_anomaly_deg":272.4649,"bstar":0.00048635,"rev_number":9765,"period_min":93.84738541963,"perigee_km":461.53245205799,"apogee_km":463.83780911599,"semimajor_km":6840.822130587,"source":"CELESTRAK","updated_at":"2026-09-22T09:00:49.583629Z"}}}